Weather History for Cape Cod CGAS, MA

Change the Weather History Date:

Friday, April 12, 2013

  Actual Average Record
Temperature  
Mean Temperature 42 °F -  
Max Temperature 48 °F 51 °F 66 °F (2014)
Min Temperature 37 °F 35 °F 28 °F (1998)
Degree Days  
Heating Degree Days 22    
Moisture  
Dew Point 34 °F    
Average Humidity 79    
Maximum Humidity 100    
Minimum Humidity 46    
Precipitation  
Precipitation 0.51 in - - ()
Sea Level Pressure  
Sea Level Pressure 29.97 in    
Wind  
Wind Speed 12 mph (ENE)    
Max Wind Speed 28 mph    
Max Gust Speed 38 mph    
Visibility 6 miles    
Events Rain    
Averages and records for this station are not official NWS values.
T = Trace of Precipitation, MM = Missing Value Source: NWS Daily Summary

Daily Weather History Graph

Daily Weather History Graph

Search for Another Location

Airport:

Trip Planner

Search our weather history database for the weather conditions in past years. The results will help you decide how hot, cold, wet, or windy it might be!

Date:

Astronomy

Apr. 12, 2013 Rise Set
Actual Time 6:06 AM EDT 7:19 PM EDT
Civil Twilight 5:37 AM EDT 7:48 PM EDT
Nautical Twilight 5:03 AM EDT 8:22 PM EDT
Astronomical Twilight 4:27 AM EDT 8:59 PM EDT
Moon 7:12 AM EDT (4/12) 9:49 PM EDT (4/12)
Length of Visible Light 14h 10m
Length of Day
13h 13m
Waxing Crescent, 5% of the Moon is Illuminated
Apr 12
Waxing Crescent
Apr 18
First Quarter
Apr 25
Full
May 2
Last Quarter
May 9
New

Hourly Weather History & Observations

Time (EDT) Temp. Windchill Dew Point Humidity Pressure Visibility Wind Dir Wind Speed Gust Speed Precip Events Conditions
12:15 AM 44.6 °F 40.7 °F 32.0 °F 61% 30.14 in 10.0 mi East 6.9 mph - N/A   Mostly Cloudy
12:35 AM 42.8 °F 38.6 °F 32.0 °F 66% 30.13 in 10.0 mi East 6.9 mph - N/A   Scattered Clouds
12:55 AM 42.8 °F 40.1 °F 32.0 °F 66% 30.15 in 10.0 mi ENE 4.6 mph - N/A   Unknown
1:15 AM 42.8 °F 40.1 °F 32.0 °F 66% 30.15 in 10.0 mi ENE 4.6 mph - N/A   Unknown
1:35 AM 42.8 °F 39.3 °F 32.0 °F 66% 30.15 in 10.0 mi ENE 5.8 mph - N/A   Unknown
1:55 AM 42.8 °F 38.6 °F 32.0 °F 66% 30.14 in 10.0 mi East 6.9 mph - N/A   Unknown
2:15 AM 42.8 °F 37.5 °F 32.0 °F 66% 30.12 in 10.0 mi East 9.2 mph - N/A   Unknown
2:35 AM 42.8 °F 38.0 °F 32.0 °F 66% 30.12 in 10.0 mi East 8.1 mph - N/A   Unknown
2:55 AM 42.8 °F 37.5 °F 30.2 °F 61% 30.13 in 10.0 mi ENE 9.2 mph - N/A   Unknown
3:15 AM 42.8 °F 38.0 °F 32.0 °F 66% 30.14 in 10.0 mi ENE 8.1 mph - N/A   Unknown
3:35 AM 42.8 °F 37.5 °F 30.2 °F 61% 30.14 in 10.0 mi ENE 9.2 mph - N/A   Unknown
3:55 AM 42.8 °F 37.5 °F 32.0 °F 66% 30.13 in 10.0 mi ENE 9.2 mph - N/A   Unknown
4:15 AM 42.8 °F 36.6 °F 32.0 °F 66% 30.13 in 10.0 mi ENE 11.5 mph 16.1 mph N/A   Unknown
4:35 AM 42.8 °F 35.4 °F 32.0 °F 66% 30.13 in 10.0 mi ENE 15.0 mph - N/A   Unknown
4:55 AM 42.8 °F 36.6 °F 28.4 °F 57% 30.12 in 10.0 mi ENE 11.5 mph 19.6 mph N/A   Unknown
5:15 AM 41.0 °F 33.9 °F 32.0 °F 70% 30.12 in 10.0 mi East 12.7 mph - N/A   Unknown
5:35 AM 41.0 °F 33.5 °F 32.0 °F 70% 30.12 in 10.0 mi ENE 13.8 mph 19.6 mph N/A   Unknown
5:55 AM 41.0 °F 33.1 °F 28.4 °F 61% 30.12 in 10.0 mi ENE 15.0 mph 21.9 mph N/A   Unknown
6:15 AM 41.0 °F 34.3 °F 28.4 °F 61% 30.12 in 10.0 mi ENE 11.5 mph 18.4 mph N/A   Unknown
6:35 AM 41.0 °F 33.1 °F 26.6 °F 57% 30.13 in 10.0 mi ENE 15.0 mph 20.7 mph N/A   Unknown
6:55 AM 41.0 °F 33.9 °F 26.6 °F 57% 30.13 in 10.0 mi East 12.7 mph 20.7 mph N/A   Unknown
7:15 AM 41.0 °F 33.1 °F 28.4 °F 61% 30.13 in 10.0 mi East 15.0 mph 20.7 mph N/A   Unknown
7:35 AM 41.0 °F 32.8 °F 28.4 °F 61% 30.13 in 10.0 mi East 16.1 mph 21.9 mph N/A   Unknown
7:55 AM 41.0 °F 32.8 °F 26.6 °F 57% 30.13 in 10.0 mi East 16.1 mph 21.9 mph N/A   Unknown
8:15 AM 42.8 °F 34.5 °F 28.4 °F 57% 30.12 in 10.0 mi East 18.4 mph 23.0 mph N/A   Unknown
8:35 AM 42.8 °F 34.8 °F 28.4 °F 57% 30.12 in 10.0 mi East 17.3 mph 21.9 mph N/A   Unknown
8:55 AM 42.8 °F 35.8 °F 28.4 °F 57% 30.13 in 10.0 mi East 13.8 mph 24.2 mph N/A   Unknown
9:15 AM 41.0 °F 32.8 °F 32.0 °F 70% 30.13 in 10.0 mi East 16.1 mph 26.5 mph N/A   Unknown
9:35 AM 42.8 °F 35.1 °F 32.0 °F 66% 30.11 in 10.0 mi ESE 16.1 mph 28.8 mph N/A   Unknown
9:55 AM 42.8 °F 34.3 °F 32.0 °F 66% 30.09 in 9.0 mi East 19.6 mph 27.6 mph N/A   Unknown
10:15 AM 41.0 °F 30.5 °F 32.0 °F 70% 30.07 in 10.0 mi East 26.5 mph 36.8 mph N/A   Unknown
10:35 AM 41.0 °F 31.1 °F 32.0 °F 70% 30.09 in 10.0 mi East 23.0 mph 29.9 mph N/A   Unknown
10:55 AM 41.0 °F 30.9 °F 32.0 °F 70% 30.07 in 10.0 mi ESE 24.2 mph 32.2 mph N/A   Unknown
11:15 AM 41.0 °F 31.4 °F 32.0 °F 70% 30.05 in 8.0 mi ESE 21.9 mph 38.0 mph N/A   Partly Cloudy
11:35 AM 41.0 °F 30.7 °F 30.2 °F 65% 30.05 in 10.0 mi ESE 25.3 mph 35.7 mph N/A   Mostly Cloudy
11:55 AM 41.0 °F 30.9 °F 32.0 °F 70% 30.04 in 5.0 mi ESE 24.2 mph 32.2 mph N/A   Haze
12:15 PM 39.2 °F 28.7 °F 35.6 °F 87% 30.01 in 2.5 mi ESE 23.0 mph 33.4 mph N/A Rain Light Rain
12:35 PM 37.4 °F 27.8 °F 35.6 °F 93% 30.02 in 1.8 mi ESE 17.3 mph 32.2 mph 0.02 in Rain Light Rain
12:55 PM 37.4 °F 28.2 °F 35.6 °F 93% 30.02 in 1.8 mi ESE 16.1 mph 26.5 mph 0.04 in Rain Light Rain
1:15 PM 37.4 °F 27.8 °F 33.8 °F 87% 30.00 in 3.0 mi East 17.3 mph 27.6 mph N/A Rain Light Rain
1:35 PM 37.4 °F 26.9 °F 35.6 °F 93% 29.99 in 1.5 mi ESE 20.7 mph 27.6 mph N/A Rain Light Rain
1:55 PM 37.4 °F 28.2 °F 35.6 °F 93% 29.99 in 2.5 mi ESE 16.1 mph 25.3 mph N/A   Mist
2:15 PM 37.4 °F 27.2 °F 35.6 °F 93% 29.97 in 1.2 mi East 19.6 mph 28.8 mph N/A Rain Light Rain
2:35 PM 37.4 °F 29.3 °F 35.6 °F 93% 29.97 in 1.2 mi East 12.7 mph 21.9 mph N/A Rain Light Rain
2:55 PM 37.4 °F 28.2 °F 37.4 °F 100% 29.96 in 2.0 mi ESE 16.1 mph 25.3 mph N/A Rain Light Rain
3:15 PM 37.4 °F 29.3 °F 37.4 °F 100% 29.94 in 1.5 mi East 12.7 mph 20.7 mph N/A Rain Light Rain
3:35 PM 37.4 °F 28.2 °F 37.4 °F 100% 29.92 in 4.0 mi East 16.1 mph - N/A   Mist
3:55 PM 37.4 °F 27.8 °F 37.4 °F 100% 29.88 in 5.0 mi East 17.3 mph 24.2 mph N/A   Mist
4:15 PM 39.2 °F 30.2 °F 37.4 °F 93% 29.87 in 3.0 mi East 17.3 mph 24.2 mph N/A   Mist
4:35 PM 39.2 °F 30.8 °F 37.4 °F 93% 29.85 in 3.0 mi East 15.0 mph 27.6 mph N/A Rain Light Rain
4:55 PM 39.2 °F 30.5 °F 37.4 °F 93% 29.83 in 3.0 mi East 16.1 mph 26.5 mph N/A   Mist
5:15 PM 39.2 °F 31.2 °F 37.4 °F 93% 29.83 in 1.5 mi East 13.8 mph 21.9 mph N/A Rain Light Rain
5:35 PM 39.2 °F 32.0 °F 37.4 °F 93% 29.83 in 2.0 mi East 11.5 mph 18.4 mph N/A Rain Light Rain
5:55 PM 39.2 °F 33.0 °F 39.2 °F 100% 29.82 in 1.8 mi ENE 9.2 mph - N/A Rain Light Rain
6:15 PM 39.2 °F 32.0 °F 39.2 °F 100% 29.81 in 1.2 mi ENE 11.5 mph - 0.02 in Rain Light Rain
6:35 PM 39.2 °F 32.0 °F 39.2 °F 100% 29.80 in 2.0 mi NE 11.5 mph - 0.04 in Rain Light Rain
6:55 PM 39.2 °F 31.2 °F 39.2 °F 100% 29.78 in 1.2 mi ENE 13.8 mph - 0.05 in Rain Light Rain
7:15 PM 39.2 °F 32.0 °F 39.2 °F 100% 29.77 in 3.0 mi NE 11.5 mph - N/A Rain Light Rain
7:35 PM 39.2 °F 30.5 °F 39.2 °F 100% 29.75 in 4.0 mi ENE 16.1 mph - N/A   Mostly Cloudy
7:55 PM 39.2 °F 30.5 °F 39.2 °F 100% 29.74 in 3.0 mi NE 16.1 mph - 0.01 in Rain Light Rain
8:15 PM 41.0 °F 33.1 °F 39.2 °F 93% 29.73 in 3.0 mi NE 15.0 mph 19.6 mph 0.01 in Rain Light Rain
8:35 PM 41.0 °F 33.5 °F 39.2 °F 93% 29.72 in 5.0 mi NNE 13.8 mph 21.9 mph 0.02 in Rain Light Rain
8:55 PM 41.0 °F 33.1 °F 39.2 °F 93% 29.72 in 7.0 mi NE 15.0 mph 18.4 mph 0.02 in Rain Light Rain
9:15 PM 41.0 °F 33.1 °F 39.2 °F 93% 29.72 in 6.0 mi NE 15.0 mph 21.9 mph N/A   Mist
9:35 PM 41.0 °F 33.5 °F 39.2 °F 93% 29.71 in 5.0 mi NNE 13.8 mph 19.6 mph N/A   Scattered Clouds
9:55 PM 41.0 °F 33.9 °F 41.0 °F 100% 29.71 in 3.0 mi NNE 12.7 mph 20.7 mph N/A   Mist
10:15 PM 41.0 °F 33.5 °F 41.0 °F 100% 29.72 in 2.0 mi NNE 13.8 mph 19.6 mph N/A   Mostly Cloudy
10:35 PM 41.0 °F 33.5 °F 39.2 °F 93% 29.70 in 2.0 mi NNE 13.8 mph 21.9 mph N/A   Mostly Cloudy
10:55 PM 41.0 °F 33.9 °F 39.2 °F 93% 29.71 in 1.8 mi NNE 12.7 mph 19.6 mph N/A   Mist
11:15 PM 41.0 °F 33.9 °F 39.2 °F 93% 29.69 in 2.0 mi NNE 12.7 mph 21.9 mph N/A   Mist
11:35 PM 41.0 °F 34.3 °F 39.2 °F 93% 29.69 in 2.0 mi NNE 11.5 mph 25.3 mph N/A Rain Light Rain
11:55 PM 41.0 °F 34.3 °F 39.2 °F 93% 29.70 in 2.5 mi North 11.5 mph 21.9 mph 0.03 in   Unknown